TimeAKDT,TemperatureF,Dew PointF,Humidity,Sea Level PressureIn,VisibilityMPH,Wind Direction,Wind SpeedMPH,Gust SpeedMPH,PrecipitationIn,Events,Conditions,WindDirDegrees,DateUTC
12:56 AM,60.1,50.0,69,30.03,10.0,Calm,Calm,-,N/A,,Clear,0,2013-08-01 08:56:00
1:56 AM,59.0,50.0,72,30.03,10.0,Calm,Calm,-,N/A,,Clear,0,2013-08-01 09:56:00
2:56 AM,57.9,48.0,70,30.04,10.0,ENE,4.6,-,N/A,,Clear,70,2013-08-01 10:56:00
3:56 AM,55.9,48.0,75,30.04,10.0,East,5.8,-,N/A,,Clear,80,2013-08-01 11:56:00
4:56 AM,55.0,48.0,77,30.04,10.0,East,3.5,-,N/A,,Clear,90,2013-08-01 12:56:00
5:56 AM,54.0,46.9,77,30.04,10.0,East,3.5,-,N/A,,Clear,80,2013-08-01 13:56:00
6:15 AM,53.6,46.4,77,30.04,25.0,East,3.5,-,N/A,,Partly Cloudy,80,2013-08-01 14:15:00
6:55 AM,55.4,46.4,72,30.04,25.0,ENE,4.6,-,N/A,,Scattered Clouds,70,2013-08-01 14:55:00
7:55 AM,59.0,48.2,67,30.04,13.0,Calm,Calm,-,N/A,,Scattered Clouds,0,2013-08-01 15:55:00
8:55 AM,62.6,48.2,59,30.04,13.0,Calm,Calm,-,N/A,,Scattered Clouds,0,2013-08-01 16:55:00
9:57 AM,68.0,51.8,56,30.02,13.0,Calm,Calm,-,N/A,,Scattered Clouds,0,2013-08-01 17:57:00
10:55 AM,71.6,51.8,50,30.01,13.0,Calm,Calm,-,N/A,,Scattered Clouds,0,2013-08-01 18:55:00
11:56 AM,73.4,50.0,44,30.00,13.0,Calm,Calm,-,N/A,,Scattered Clouds,0,2013-08-01 19:56:00
12:55 PM,78.8,48.2,34,29.98,13.0,Variable,3.5,-,N/A,,Scattered Clouds,0,2013-08-01 20:55:00
1:55 PM,80.6,48.2,32,29.96,13.0,Calm,Calm,-,N/A,,Scattered Clouds,0,2013-08-01 21:55:00
2:55 PM,82.4,48.2,30,29.94,15.0,Variable,3.5,-,N/A,,Scattered Clouds,0,2013-08-01 22:55:00
3:55 PM,84.2,44.6,25,29.91,15.0,Calm,Calm,-,N/A,,Partly Cloudy,0,2013-08-01 23:55:00
4:55 PM,84.2,44.6,25,29.88,15.0,NW,4.6,-,N/A,,Partly Cloudy,310,2013-08-02 00:55:00
5:55 PM,84.2,44.6,25,29.86,15.0,NNE,3.5,-,N/A,,Scattered Clouds,20,2013-08-02 01:55:00
6:55 PM,86.0,44.6,23,29.84,15.0,East,8.1,-,N/A,,Scattered Clouds,90,2013-08-02 02:55:00
7:55 PM,84.2,44.6,25,29.83,15.0,NE,6.9,-,N/A,,Scattered Clouds,50,2013-08-02 03:55:00
8:55 PM,82.4,44.6,26,29.82,15.0,ENE,5.8,-,N/A,,Partly Cloudy,60,2013-08-02 04:55:00
9:55 PM,78.8,46.4,32,29.81,15.0,ENE,4.6,-,N/A,,Partly Cloudy,70,2013-08-02 05:55:00
10:56 PM,73.9,46.0,37,29.81,10.0,ENE,6.9,-,N/A,,Clear,70,2013-08-02 06:56:00
11:56 PM,71.1,46.9,42,29.81,10.0,East,9.2,-,N/A,,Clear,80,2013-08-02 07:56:00